CW7427 Weather Reports


Display with metric or nautical units.
time (UTC)temp
F
wind
direction
speed
MPH
gust
MPH
rain 1hr
in
rain 24hr
in
rain mn
in
humidity
%
barometer
mb
20260901145650 65 285 0.0 1.0 0.00 0.00 0.00 59 1015.2
20260901145124 65 280 0.0 4.0 0.00 0.00 0.00 59 1015.3
20260901144616 65 279 0.0 4.0 0.00 0.00 0.00 59 1015.4
20260901144123 65 278 0.0 0.0 0.00 0.00 0.00 59 1015.4
20260901143601 66 278 0.0 0.0 0.00 0.00 0.00 58 1015.4
20260901143028 66 279 0.0 4.0 0.00 0.00 0.00 58 1015.5
20260901142514 66 279 0.0 4.0 0.00 0.00 0.00 58 1015.6
20260901142008 66 273 0.0 2.0 0.00 0.00 0.00 57 1015.5
20260901141506 66 273 0.0 3.0 0.00 0.00 0.00 57 1015.6
20260901141227 66 276 0.0 4.0 0.00 0.00 0.00 57 1015.5
20260901140450 66 281 1.0 5.0 0.00 0.00 0.00 57 1015.5
20260901135950 66 325 1.0 5.0 0.00 0.00 0.00 57 1015.6
20260901135447 66 248 1.0 8.0 0.00 0.00 0.00 57 1015.7
20260901134933 66 344 1.0 8.0 0.00 0.00 0.00 57 1015.8
20260901134646 66 302 1.0 5.0 0.00 0.00 0.00 57 1015.8
20260901133906 66 306 1.0 5.0 0.00 0.00 0.00 57 1015.8
20260901133344 66 311 0.0 4.0 0.00 0.00 0.00 57 1015.8
20260901132836 66 313 0.0 2.0 0.00 0.00 0.00 57 1015.8
20260901132323 66 313 0.0 2.0 0.00 0.00 0.00 57 1015.8
20260901132251 66 313 0.0 0.0 0.00 0.00 0.00 57 1015.8
20260901131258 66 313 0.0 1.0 0.00 0.00 0.00 57 1015.9
20260901130751 66 313 0.0 2.0 0.00 0.00 0.00 56 1016.0
20260901130246 66 313 0.0 5.0 0.00 0.00 0.00 56 1016.0
20260901125745 66 321 0.0 5.0 0.00 0.00 0.00 56 1016.1
20260901125231 66 299 0.0 2.0 0.00 0.00 0.00 56 1016.0
20260901124720 66 294 0.0 2.0 0.00 0.00 0.00 56 1016.1
20260901124213 65 290 0.0 4.0 0.00 0.00 0.00 56 1016.1
20260901123704 65 290 0.0 4.0 0.00 0.00 0.00 57 1016.2
20260901123203 64 121 0.0 0.0 0.00 0.00 0.00 58 1016.2
20260901122701 64 121 0.0 0.0 0.00 0.00 0.00 58 1016.2
20260901122151 64 121 0.0 0.0 0.00 0.00 0.00 58 1016.3
20260901121604 64 121 0.0 0.0 0.00 0.00 0.00 58 1016.3
20260901121036 65 121 0.0 0.0 0.00 0.00 0.00 57 1016.4
20260901120509 65 121 0.0 0.0 0.00 0.00 0.00 57 1016.4
20260901120009 65 121 0.0 0.0 0.00 0.00 0.00 57 1016.5
20260901115509 65 121 0.0 0.0 0.00 0.00 0.00 56 1016.7
20260901114959 65 121 0.0 0.0 0.00 0.00 0.00 55 1016.7
20260901114709 65 121 0.0 0.0 0.00 0.00 0.00 55 1016.9
20260901113950 65 121 0.0 0.0 0.00 0.00 0.00 55 1017.1
20260901113446 65 121 0.0 0.0 0.00 0.00 0.00 54 1017.3
20260901112927 65 121 0.0 0.0 0.00 0.00 0.00 54 1017.3
20260901112418 65 121 0.0 0.0 0.00 0.00 0.00 54 1017.4
20260901111911 65 121 0.0 2.0 0.00 0.00 0.00 53 1017.6
20260901111406 65 121 0.0 2.0 0.00 0.00 0.00 53 1017.6
20260901110852 65 121 0.0 0.0 0.00 0.00 0.00 54 1017.8
20260901110340 65 121 0.0 0.0 0.00 0.00 0.00 53 1017.8
20260901105811 65 121 0.0 0.0 0.00 0.00 0.00 54 1017.9
20260901105528 65 121 0.0 0.0 0.00 0.00 0.00 54 1017.9
20260901104753 65 121 0.0 0.0 0.00 0.00 0.00 55 1017.8
20260901104250 64 121 0.0 0.0 0.00 0.00 0.00 56 1017.8
20260901103726 63 121 0.0 0.0 0.00 0.00 0.00 59 1017.8
20260901103223 63 121 0.0 0.0 0.00 0.00 0.00 61 1017.8
20260901102701 63 121 0.0 0.0 0.00 0.00 0.00 61 1017.8
20260901102155 62 121 0.0 0.0 0.00 0.00 0.00 62 1017.8
20260901101655 62 121 0.0 0.0 0.00 0.00 0.00 62 1017.8
20260901101149 62 121 0.0 0.0 0.00 0.00 0.00 62 1017.8
20260901100631 62 121 0.0 0.0 0.00 0.00 0.00 62 1017.7
20260901100113 62 121 0.0 0.0 0.00 0.00 0.00 61 1017.8
20260901095604 62 121 0.0 0.0 0.00 0.00 0.00 61 1017.9
20260901095103 62 121 0.0 0.0 0.00 0.00 0.00 61 1017.9
20260901094555 62 121 0.0 0.0 0.00 0.00 0.00 61 1017.9
20260901094036 63 121 0.0 0.0 0.00 0.00 0.00 60 1018.0
20260901093523 63 121 0.0 0.0 0.00 0.00 0.00 58 1017.9
20260901093013 64 121 0.0 0.0 0.00 0.00 0.00 58 1017.9
20260901092506 64 121 0.0 0.0 0.00 0.00 0.00 57 1017.9
20260901091957 65 121 0.0 0.0 0.00 0.00 0.00 55 1017.9
20260901091454 66 121 0.0 0.0 0.00 0.00 0.00 53 1017.9
20260901090951 67 121 0.0 0.0 0.00 0.00 0.00 52 1017.8
20260901090442 67 121 0.0 0.0 0.00 0.00 0.00 51 1017.8
20260901085859 67 121 0.0 0.0 0.00 0.00 0.00 51 1017.9
20260901085600 67 121 0.0 0.0 0.00 0.00 0.00 50 1017.9
20260901084824 68 121 0.0 0.0 0.00 0.00 0.00 49 1017.9
20260901084313 68 121 0.0 0.0 0.00 0.00 0.00 48 1017.8
20260901083808 68 121 0.0 0.0 0.00 0.00 0.00 48 1017.8
20260901083301 69 121 0.0 0.0 0.00 0.00 0.00 48 1017.7
20260901082759 69 121 0.0 0.0 0.00 0.00 0.00 46 1017.6
20260901082245 69 121 0.0 0.0 0.00 0.00 0.00 46 1017.7
20260901081737 70 121 0.0 0.0 0.00 0.00 0.00 45 1017.7
20260901081235 70 121 0.0 0.0 0.00 0.00 0.00 44 1017.7
20260901080730 70 121 0.0 0.0 0.00 0.00 0.00 43 1017.6
20260901080649 71 121 0.0 0.0 0.00 0.00 0.00 43 1017.6
20260901075704 71 121 0.0 0.0 0.00 0.00 0.00 42 1017.6
20260901075148 72 121 0.0 0.0 0.00 0.00 0.00 41 1017.5
20260901074645 72 121 0.0 1.0 0.00 0.00 0.00 40 1017.5
20260901074125 72 121 0.0 4.0 0.00 0.00 0.00 40 1017.4
20260901073627 73 121 0.0 4.0 0.00 0.00 0.00 40 1017.3
20260901073126 73 117 0.0 2.0 0.00 0.00 0.00 40 1017.4
20260901072627 73 310 0.0 2.0 0.00 0.00 0.00 40 1017.3
20260901072118 73 317 0.0 2.0 0.00 0.00 0.00 39 1017.3
20260901071617 74 319 0.0 2.0 0.00 0.00 0.00 39 1017.3
20260901071117 74 315 0.0 2.0 0.00 0.00 0.00 39 1017.3
20260901070611 74 244 0.0 4.0 0.00 0.00 0.00 38 1017.1
20260901070110 74 244 0.0 4.0 0.00 0.00 0.00 38 1017.1
20260901065601 75 248 0.0 4.0 0.00 0.00 0.00 39 1017.1
20260901065051 75 323 0.0 1.0 0.00 0.00 0.00 38 1017.0
20260901064553 75 254 0.0 2.0 0.00 0.00 0.00 37 1016.9
20260901064048 75 286 0.0 3.0 0.00 0.00 0.00 37 1017.0
20260901063548 75 284 0.0 3.0 0.00 0.00 0.00 38 1017.1
20260901063040 76 283 0.0 1.0 0.00 0.00 0.00 38 1017.0
20260901062527 76 282 0.0 4.0 0.00 0.00 0.00 37 1017.0
20260901062020 76 282 0.0 4.0 0.00 0.00 0.00 37 1017.0
20260901061510 77 281 0.0 5.0 0.00 0.00 0.00 36 1017.3
20260901061000 77 289 0.0 5.0 0.00 0.00 0.00 35 1017.1
20260901060455 77 265 0.0 4.0 0.00 0.00 0.00 34 1017.1
20260901055945 77 265 0.0 5.0 0.00 0.00 0.00 33 1017.1
20260901055918 78 249 0.0 5.0 0.00 0.00 0.00 33 1017.1
20260901054934 78 314 0.0 0.0 0.00 0.00 0.00 33 1017.1
20260901054423 78 315 0.0 2.0 0.00 0.00 0.00 32 1017.3
20260901053912 78 309 0.0 6.0 0.00 0.00 0.00 31 1017.4
20260901053624 78 321 0.0 6.0 0.00 0.00 0.00 31 1017.3
20260901052900 79 12 0.0 5.0 0.00 0.00 0.00 30 1017.4
20260901052350 79 279 0.0 5.0 0.00 0.00 0.00 30 1017.4
20260901051845 79 314 0.0 5.0 0.00 0.00 0.00 30 1017.5
20260901051334 79 313 0.0 2.0 0.00 0.00 0.00 28 1017.4
20260901050824 80 314 0.0 0.0 0.00 0.00 0.00 28 1017.5
20260901050318 80 315 0.0 1.0 0.00 0.00 0.00 29 1017.5
20260901045804 80 314 0.0 5.0 0.00 0.00 0.00 28 1017.6
20260901045252 80 315 0.0 5.0 0.00 0.00 0.00 29 1017.6
20260901044742 80 323 0.0 2.0 0.00 0.00 0.00 36 1017.6
20260901044236 79 313 0.0 2.0 0.00 0.00 0.00 35 1017.5
20260901043728 78 311 0.0 1.0 0.00 0.00 0.00 36 1017.6
20260901043445 79 309 0.0 4.0 0.00 0.00 0.00 34 1017.7
20260901042709 80 310 0.0 4.0 0.00 0.00 0.00 34 1017.7
20260901042204 80 311 0.0 3.0 0.00 0.00 0.00 32 1017.7
20260901041654 80 313 0.0 2.0 0.00 0.00 0.00 33 1017.8
20260901041149 80 312 0.0 4.0 0.00 0.00 0.00 32 1017.9
20260901040643 80 336 0.0 2.0 0.00 0.00 0.00 33 1017.9
20260901040132 80 331 0.0 2.0 0.00 0.00 0.00 33 1017.9
20260901035622 79 329 0.0 3.0 0.00 0.00 0.00 32 1018.0
20260901035117 80 327 0.0 3.0 0.00 0.00 0.00 33 1018.1
20260901034606 79 330 0.0 4.0 0.00 0.00 0.00 35 1018.2
20260901034100 79 340 0.0 4.0 0.00 0.00 0.00 34 1018.2
20260901033554 79 319 0.0 3.0 0.00 0.00 0.00 33 1018.3
20260901033044 79 305 0.0 3.0 0.00 0.00 0.00 33 1018.5
20260901032533 79 355 0.0 5.0 0.00 0.00 0.00 34 1018.6
20260901032024 79 355 0.0 5.0 0.00 0.00 0.00 36 1018.7
20260901031514 79 347 0.0 5.0 0.00 0.00 0.00 36 1018.9
20260901031008 79 302 0.0 4.0 0.00 0.00 0.00 40 1018.9
20260901030504 79 301 0.0 4.0 0.00 0.00 0.00 35 1019.0
20260901030209 79 306 0.0 2.0 0.00 0.00 0.00 37 1019.1
20260901025438 79 306 0.0 1.0 0.00 0.00 0.00 37 1019.2
20260901024928 79 304 0.0 3.0 0.00 0.00 0.00 38 1019.3
20260901024418 79 304 0.0 3.0 0.00 0.00 0.00 36 1019.4
20260901023912 78 288 0.0 3.0 0.00 0.00 0.00 37 1019.7
20260901023405 78 293 0.0 4.0 0.00 0.00 0.00 37 1019.8
20260901022855 78 292 0.0 4.0 0.00 0.00 0.00 39 1019.9
20260901022350 78 5 0.0 2.0 0.00 0.00 0.00 36 1020.0
20260901021844 77 5 0.0 3.0 0.00 0.00 0.00 36 1020.1
20260901021558 78 5 0.0 5.0 0.00 0.00 0.00 37 1020.2
20260901021046 78 13 0.0 5.0 0.00 0.00 0.00 40 1020.5
20260901020318 77 16 0.0 4.0 0.00 0.00 0.00 40 1020.6
20260901015808 77 332 0.0 2.0 0.00 0.00 0.00 43 1020.7
20260901015300 77 325 0.0 0.0 0.00 0.00 0.00 40 1020.9
20260901014748 77 324 0.0 2.0 0.00 0.00 0.00 43 1021.1
20260901014240 76 322 0.0 3.0 0.00 0.00 0.00 45 1021.2
20260901013728 76 342 0.0 2.0 0.00 0.00 0.00 47 1021.3
20260901013219 76 342 0.0 2.0 0.00 0.00 0.00 44 1021.5
20260901012709 76 343 0.0 2.0 0.00 0.00 0.00 46 1021.6
20260901012202 76 9 0.0 4.0 0.00 0.00 0.00 47 1021.7
20260901011656 76 10 0.0 4.0 0.00 0.00 0.00 46 1021.8
20260901011156 75 328 0.0 1.0 0.00 0.00 0.00 44 1022.0
20260901010657 75 329 0.0 1.0 0.00 0.00 0.00 48 1022.1
20260901010159 74 329 0.0 0.0 0.00 0.00 0.00 46 1022.1
20260901005656 75 326 0.0 0.0 0.00 0.00 0.00 46 1022.3
20260901005150 75 325 0.0 0.0 0.00 0.00 0.00 49 1022.4
20260901004641 74 46 0.0 0.0 0.00 0.00 0.00 49 1022.6
20260901004353 74 48 0.0 0.0 0.00 0.00 0.00 51 1022.6
20260901003624 73 51 0.0 0.0 0.00 0.00 0.00 49 1022.7
20260901003354 73 53 0.0 0.0 0.00 0.00 0.00 49 1022.8
20260901002619 73 53 0.0 0.0 0.00 0.00 0.00 51 1022.9
20260901002108 72 54 0.0 0.0 0.00 0.00 0.00 52 1023.0
20260901001552 71 55 0.0 0.0 0.00 0.00 0.00 55 1023.1
20260901001036 71 55 0.0 0.0 0.00 0.00 0.00 56 1023.2
20260901000747 71 55 0.0 0.0 0.00 0.00 0.00 55 1023.3
20260901000007 70 56 0.0 0.0 0.00 0.00 0.00 57 1023.4
20260831235456 69 56 0.0 0.0 0.00 0.00 0.00 57 1023.5
20260831234947 69 56 0.0 0.0 0.00 0.00 0.00 61 1023.7
20260831234427 68 56 0.0 0.0 0.00 0.00 0.00 63 1023.8
20260831233913 67 56 0.0 0.0 0.00 0.00 0.00 63 1023.7
20260831233407 67 56 0.0 0.0 0.00 0.00 0.00 62 1023.9
20260831232858 66 56 0.0 0.0 0.00 0.00 0.00 64 1023.9
20260831232353 66 56 0.0 0.0 0.00 0.00 0.00 66 1023.9
20260831232332 65 56 0.0 0.0 0.00 0.00 0.00 66 1024.0
20260831231331 64 56 0.0 0.0 0.00 0.00 0.00 67 1024.1
20260831230827 64 56 0.0 0.0 0.00 0.00 0.00 66 1024.2
20260831230315 64 56 0.0 0.0 0.00 0.00 0.00 68 1024.2
20260831225808 63 56 0.0 0.0 0.00 0.00 0.00 69 1024.2
20260831225306 63 56 0.0 0.0 0.00 0.00 0.00 68 1024.2
20260831224759 62 57 0.0 0.0 0.00 0.00 0.00 68 1024.4
20260831224723 62 57 0.0 0.0 0.00 0.00 0.00 68 1024.6
20260831224349 62 57 0.0 0.0 0.00 0.00 0.00 68 1024.5
20260831223252 62 57 0.0 0.0 0.00 0.00 0.00 71 1024.6
20260831222752 61 57 0.0 0.0 0.00 0.00 0.00 72 1024.7
20260831222243 60 58 0.0 0.0 0.00 0.00 0.00 75 1024.7
20260831221735 59 58 0.0 0.0 0.00 0.00 0.00 76 1024.7
20260831221227 58 58 0.0 0.0 0.00 0.00 0.00 78 1024.8
20260831220721 58 58 0.0 0.0 0.00 0.00 0.00 79 1024.9
20260831220207 57 58 0.0 0.0 0.00 0.00 0.00 81 1025.0
20260831215657 57 58 0.0 0.0 0.00 0.00 0.00 82 1024.9
20260831215159 56 58 0.0 0.0 0.00 0.00 0.00 83 1024.8
20260831214651 55 58 0.0 0.0 0.00 0.00 0.00 85 1024.8
20260831214144 54 58 0.0 0.0 0.00 0.00 0.00 88 1024.8
20260831213636 53 58 0.0 0.0 0.00 0.00 0.00 89 1024.7
20260831213128 52 58 0.0 0.0 0.00 0.00 0.00 90 1024.6
20260831212831 52 58 0.0 0.0 0.00 0.00 0.00 91 1024.7
20260831212105 51 58 0.0 0.0 0.00 0.00 0.00 92 1024.7
20260831211556 51 58 0.0 0.0 0.00 0.00 0.00 93 1024.6
20260831211057 50 58 0.0 0.0 0.00 0.00 0.00 93 1024.6
20260831210551 49 58 0.0 0.0 0.00 0.00 0.00 93 1024.6
20260831210027 49 58 0.0 0.0 0.00 0.00 0.00 93 1024.3
20260831205528 49 58 0.0 0.0 0.00 0.00 0.00 94 1024.3
20260831205251 48 58 0.0 0.0 0.00 0.00 0.00 94 1024.3
20260831204521 48 58 0.0 0.0 0.00 0.00 0.00 94 1024.3
20260831204011 47 58 0.0 0.0 0.00 0.00 0.00 94 1024.3
20260831203505 47 58 0.0 0.0 0.00 0.00 0.00 93 1024.2
20260831203214 46 58 0.0 0.0 0.00 0.00 0.00 93 1024.2
20260831202451 46 58 0.0 0.0 0.00 0.00 0.00 93 1024.2
20260831201951 47 58 0.0 0.0 0.00 0.00 0.00 93 1024.1
20260831201705 47 58 0.0 0.0 0.00 0.00 0.00 93 1024.1
20260831200944 47 58 0.0 0.0 0.00 0.00 0.00 93 1024.1
20260831200429 47 58 0.0 0.0 0.00 0.00 0.00 93 1024.1
20260831200412 47 58 0.0 0.0 0.00 0.00 0.00 92 1024.1
20260831195409 47 58 0.0 0.0 0.00 0.00 0.00 92 1024.0
20260831194831 47 58 0.0 0.0 0.00 0.00 0.00 92 1024.0
20260831194303 47 58 0.0 0.0 0.00 0.00 0.00 92 1024.0
20260831193803 47 58 0.0 0.0 0.00 0.00 0.00 92 1024.1
20260831193254 48 58 0.0 0.0 0.00 0.00 0.00 92 1024.0
20260831192755 48 58 0.0 0.0 0.00 0.00 0.00 91 1024.1
20260831192243 48 58 0.0 0.0 0.00 0.00 0.00 91 1024.0
20260831191733 49 58 0.0 0.0 0.00 0.00 0.00 91 1024.1
20260831191229 49 58 0.0 0.0 0.00 0.00 0.00 91 1024.2
20260831190724 50 58 0.0 0.0 0.00 0.00 0.00 91 1024.2
20260831190158 50 58 0.0 0.0 0.00 0.00 0.00 91 1024.3
20260831185631 50 58 0.0 0.0 0.00 0.00 0.00 91 1024.2
20260831185131 50 58 0.0 0.0 0.00 0.00 0.00 91 1024.2
20260831184610 50 58 0.0 0.0 0.00 0.00 0.00 91 1024.1
20260831184101 50 58 0.0 0.0 0.00 0.00 0.00 91 1024.1
20260831183554 50 58 0.0 0.0 0.00 0.00 0.00 91 1024.0
20260831183306 50 58 0.0 0.0 0.00 0.00 0.00 91 1024.1
20260831182539 50 58 0.0 0.0 0.00 0.00 0.00 91 1024.0
20260831182020 51 58 0.0 0.0 0.00 0.00 0.00 90 1024.0
20260831181724 51 58 0.0 0.0 0.00 0.00 0.00 90 1024.0
20260831180953 51 58 0.0 0.0 0.00 0.00 0.00 90 1024.0
20260831180437 51 58 0.0 0.0 0.00 0.00 0.00 91 1024.1
20260831175921 51 58 0.0 0.0 0.00 0.00 0.00 91 1024.1
20260831175409 51 58 0.0 0.0 0.00 0.00 0.00 91 1024.1
20260831174852 51 58 0.0 0.0 0.00 0.00 0.00 90 1024.1
20260831174353 52 58 0.0 0.0 0.00 0.00 0.00 91 1024.1
20260831173824 52 58 0.0 0.0 0.00 0.00 0.00 91 1024.1
20260831173311 52 58 0.0 0.0 0.00 0.00 0.00 91 1024.2
20260831172801 52 58 0.0 0.0 0.00 0.00 0.00 91 1024.2
20260831172236 52 58 0.0 0.0 0.00 0.00 0.00 91 1024.2
20260831171728 52 58 0.0 0.0 0.00 0.00 0.00 91 1024.3
20260831171208 52 58 0.0 0.0 0.00 0.00 0.00 91 1024.3
20260831170700 52 58 0.0 0.0 0.00 0.00 0.00 91 1024.3
20260831170140 51 58 0.0 0.0 0.00 0.00 0.00 90 1024.4
20260831165640 51 58 0.0 0.0 0.00 0.00 0.00 91 1024.3
20260831165352 52 58 0.0 0.0 0.00 0.00 0.00 90 1024.4
20260831165033 52 58 0.0 0.0 0.00 0.00 0.00 91 1024.5
20260831164659 52 58 0.0 0.0 0.00 0.00 0.00 90 1024.4
20260831163556 51 58 0.0 0.0 0.00 0.00 0.00 91 1024.5
20260831163052 51 58 0.0 0.0 0.00 0.00 0.00 91 1024.6
20260831162552 51 58 0.0 0.0 0.00 0.00 0.00 91 1024.6
20260831162045 51 58 0.0 0.0 0.00 0.00 0.00 91 1024.7
20260831161545 51 58 0.0 0.0 0.00 0.00 0.00 91 1024.7
20260831161019 51 58 0.0 0.0 0.00 0.00 0.00 91 1024.8
20260831160518 50 58 0.0 0.0 0.00 0.00 0.00 91 1024.9
20260831160003 50 58 0.0 0.0 0.00 0.00 0.00 91 1024.9
20260831155502 50 58 0.0 0.0 0.00 0.00 0.00 90 1025.0
20260831154958 50 58 0.0 0.0 0.00 0.00 0.00 90 1025.0
20260831154455 51 58 0.0 0.0 0.00 0.00 0.00 90 1025.1
20260831154211 51 58 0.0 0.0 0.00 0.00 0.00 90 1025.2
20260831153450 51 58 0.0 0.0 0.00 0.00 0.00 90 1025.2
20260831152940 51 58 0.0 0.0 0.00 0.00 0.00 89 1025.4
20260831152428 51 58 0.0 0.0 0.00 0.00 0.00 90 1025.5
20260831151902 51 58 0.0 0.0 0.00 0.00 0.00 90 1025.5
20260831151356 51 58 0.0 0.0 0.00 0.00 0.00 89 1025.6
20260831150847 51 58 0.0 0.0 0.00 0.00 0.00 89 1025.7
20260831150346 51 58 0.0 0.0 0.00 0.00 0.00 89 1025.7